Prof. Eribelto Manoel Reino State Airport

SBSR · São Paulo, Brasilien

METAR-Geschichte SBSR · Prof. Eribelto Manoel Reino State Airport

Unten siehst du die METARs der letzten paar Tage. Wähle ein Jahr, um ältere METARs ab dem Jahr 2007 zu durchsuchen.

24. Mai 2024

Uhrzeit Code Wetter Temp. Sichtweite Wolkendecke Wind METAR/SPECI
23:00
V
20 °C 10 km+ - 220° 220° 2 kt METAR SBSR 250200Z 22002KT CAVOK 20/18 Q1018
22:00
V
19 °C 10 km+ - 250° 250° 2 kt METAR SBSR 250100Z 25002KT CAVOK 19/18 Q1018
21:00
V
20 °C 10 km+ - 230° 230° 4 kt METAR SBSR 250000Z 23004KT CAVOK 20/17 Q1018
20:00
V
21 °C 10 km+ - 240° 240° 3 kt METAR SBSR 242300Z 24003KT 9999 SCT035 21/18 Q1017
19:00
V
21 °C 10 km+ - 240° 240° 4 kt METAR SBSR 242200Z 24004KT 9999 SCT040 21/18 Q1017
18:00
V
23 °C 10 km+ - 240° 240° 7 kt METAR SBSR 242100Z 24007KT CAVOK 23/18 Q1016
17:00
V
24 °C 10 km+ - 240° 240° 8 kt METAR SBSR 242000Z 24008KT CAVOK 24/16 Q1016
15:00
V
23 °C 10 km+ 7.000 ft 120° 120° 7 kt METAR SBSR 241800Z 12007KT 9999 SCT040 BKN070 23/17 Q1015
14:00
V
25 °C 10 km+ 7.000 ft 270° 270° 15 kt METAR SBSR 241700Z 27015KT 9999 SCT040 BKN070 25/14 Q1019
13:00
V
26 °C 10 km+ 7.000 ft 270° 270° 18 kt METAR SBSR 241600Z 27018KT 9999 SCT040 BKN070 26/14 Q1020
12:00
V
28 °C 10 km+ 7.000 ft 270° 270° 12 kt METAR SBSR 241500Z 27012KT 9999 SCT040 BKN070 28/15 Q1019
11:00
V
28 °C 10 km+ - 330° 330° 3 kt METAR SBSR 241400Z 33003KT CAVOK 28/16 Q1019
10:00
V
27 °C 10 km+ - 360° 360° 7 kt METAR SBSR 241300Z 36007KT CAVOK 27/15 Q1019
09:00
V
25 °C 10 km+ - 360° 360° 8 kt METAR SBSR 241200Z 36008KT CAVOK 25/15 Q1018
08:00
V
22 °C 10 km+ - 300° 300° 2 kt METAR SBSR 241100Z 30002KT CAVOK 22/15 Q1017
07:00
V
20 °C 10 km+ - 090° 090° 2 kt METAR SBSR 241000Z 09002KT CAVOK 20/14 Q1015
06:00
V
20 °C 10 km+ - 060° 060° 4 kt METAR SBSR 240900Z 06004KT CAVOK 20/14 Q1015
05:00
V
20 °C 10 km+ - 080° 080° 2 kt METAR SBSR 240800Z 08002KT CAVOK 20/13 Q1014
04:00
V
20 °C 10 km+ - 060° 060° 3 kt METAR SBSR 240700Z 06003KT CAVOK 20/12 Q1014
03:00
V
21 °C 10 km+ - 360° 360° 0 kt METAR SBSR 240600Z 00000KT CAVOK 21/12 Q1015
02:00
V
21 °C 10 km+ - 060° 060° 3 kt METAR SBSR 240500Z 06003KT CAVOK 21/11 Q1015
01:00
V
22 °C 10 km+ - 360° 360° 0 kt METAR SBSR 240400Z 00000KT CAVOK 22/11 Q1016
00:00
V
23 °C 10 km+ - 060° 060° 2 kt METAR SBSR 240300Z 06002KT CAVOK 23/12 Q1016

23. Mai 2024

Uhrzeit Code Wetter Temp. Sichtweite Wolkendecke Wind METAR/SPECI
23:00
V
22 °C 10 km+ - 360° 360° 0 kt METAR SBSR 240200Z 00000KT CAVOK 22/11 Q1016
22:00
V
23 °C 10 km+ - 360° 360° 0 kt METAR SBSR 240100Z 00000KT CAVOK 23/12 Q1016
21:00
V
25 °C 10 km+ - 360° 360° 0 kt METAR SBSR 240000Z 00000KT CAVOK 25/11 Q1016
20:00
V
27 °C 10 km+ - 030° 030° 4 kt METAR SBSR 232300Z 03004KT CAVOK 27/10 Q1016
19:00
V
28 °C 10 km+ - 040° 040° 2 kt METAR SBSR 232200Z 04002KT CAVOK 28/10 Q1016
18:00
V
30 °C 10 km+ - 010° 010° 2 kt METAR SBSR 232100Z 01002KT CAVOK 30/08 Q1015
17:00
V
31 °C 10 km+ - 330° 330° 3 kt METAR SBSR 232000Z 33003KT CAVOK 31/09 Q1014
16:00
V
32 °C 10 km+ - 050° 050° 5 kt METAR SBSR 231900Z 05005KT CAVOK 32/10 Q1015
15:00
V
32 °C 10 km+ - 280° 280° 4 kt METAR SBSR 231800Z 28004KT CAVOK 32/09 Q1015
14:00
V
31 °C 10 km+ - 030° 030° 9 kt METAR SBSR 231700Z 03009KT CAVOK 31/11 Q1016
13:00
V
31 °C 10 km+ - 020° 020° 7 kt METAR SBSR 231600Z 02007KT CAVOK 31/11 Q1017
12:00
V
30 °C 10 km+ - 020° 020° 6 kt METAR SBSR 231500Z 02006KT CAVOK 30/12 Q1018
11:00
V
28 °C 10 km+ - 060° 060° 9 kt METAR SBSR 231400Z 06009KT CAVOK 28/12 Q1019
10:00
V
25 °C 10 km+ - 050° 050° 7 kt METAR SBSR 231300Z 05007KT CAVOK 25/13 Q1019
09:00
V
22 °C 10 km+ - 060° 060° 7 kt METAR SBSR 231200Z 06007KT CAVOK 22/13 Q1019
08:00
V
19 °C 10 km+ - 090° 090° 6 kt METAR SBSR 231100Z 09006KT CAVOK 19/12 Q1019
07:00
V
19 °C 10 km+ - 070° 070° 6 kt METAR SBSR 231000Z 07006KT CAVOK 19/12 Q1018
06:00
V
19 °C 10 km+ - 090° 090° 4 kt METAR SBSR 230900Z 09004KT CAVOK 19/12 Q1018
05:00
V
19 °C 10 km+ - 090° 090° 4 kt METAR SBSR 230800Z 09004KT CAVOK 19/12 Q1017
04:00
V
20 °C 10 km+ - 090° 090° 6 kt METAR SBSR 230700Z 09006KT CAVOK 20/12 Q1017
03:00
V
21 °C 10 km+ - 060° 060° 2 kt METAR SBSR 230600Z 06002KT CAVOK 21/12 Q1001
02:00
V
21 °C 10 km+ - 090° 090° 5 kt METAR SBSR 230500Z 09005KT CAVOK 21/12 Q1018
01:00
V
22 °C 10 km+ - 090° 090° 2 kt METAR SBSR 230400Z 09002KT CAVOK 22/12 Q1018
00:00
V
22 °C 10 km+ - 030° 030° 2 kt METAR SBSR 230300Z 03002KT CAVOK 22/12 Q1018

22. Mai 2024

Uhrzeit Code Wetter Temp. Sichtweite Wolkendecke Wind METAR/SPECI
23:00
V
23 °C 10 km+ - 070° 070° 2 kt METAR SBSR 230200Z 07002KT CAVOK 23/12 Q1018
22:00
V
25 °C 10 km+ - 060° 060° 3 kt METAR SBSR 230100Z 06003KT CAVOK 25/12 Q1018
21:00
V
26 °C 10 km+ - 090° 090° 2 kt METAR SBSR 230000Z 09002KT CAVOK 26/12 Q1018
20:00
V
27 °C 10 km+ - 090° 090° 3 kt METAR SBSR 222300Z 09003KT CAVOK 27/11 Q1018
19:00
V
27 °C 10 km+ - 090° 090° 5 kt METAR SBSR 222200Z 09005KT CAVOK 27/10 Q1017
18:00
V
29 °C 10 km+ - 100° 100° 3 kt METAR SBSR 222100Z 10003KT CAVOK 29/11 Q1017
17:00
V
30 °C 10 km+ - 050° 050° 5 kt METAR SBSR 222000Z 05005KT CAVOK 30/10 Q1017
16:00
V
31 °C 10 km+ - 030° 030° 10 kt METAR SBSR 221900Z 03010KT CAVOK 31/10 Q1017
15:00
V
30 °C 10 km+ - 020° 020° 6 kt METAR SBSR 221800Z 02006KT CAVOK 30/10 Q1017
14:00
V
30 °C 10 km+ - 030° 030° 6 kt METAR SBSR 221700Z 03006KT CAVOK 30/11 Q1018
13:00
V
30 °C 10 km+ - 060° 060° 9 kt METAR SBSR 221600Z 06009KT CAVOK 30/12 Q1019
12:00
V
29 °C 10 km+ - 060° 060° 12 kt METAR SBSR 221500Z 06012KT CAVOK 29/11 Q1020
11:00
V
27 °C 10 km+ - 070° 070° 14 kt METAR SBSR 221400Z 07014KT CAVOK 27/12 Q1021
10:00
V
26 °C 10 km+ - 060° 060° 15 kt METAR SBSR 221300Z 06015KT CAVOK 26/13 Q1022
09:00
V
24 °C 10 km+ - 070° 070° 11 kt METAR SBSR 221200Z 07011KT CAVOK 24/14 Q1021
08:00
V
22 °C 10 km+ - 070° 070° 6 kt METAR SBSR 221100Z 07006KT CAVOK 22/15 Q1021
07:00
V
21 °C 10 km+ - 070° 070° 5 kt METAR SBSR 221000Z 07005KT CAVOK 21/14 Q1020
06:00
V
21 °C 10 km+ - 080° 080° 7 kt METAR SBSR 220900Z 08007KT CAVOK 21/14 Q1019
05:00
V
21 °C 10 km+ - 070° 070° 8 kt METAR SBSR 220800Z 07008KT CAVOK 21/14 Q1018
04:00
V
22 °C 10 km+ - 060° 060° 9 kt METAR SBSR 220700Z 06009KT CAVOK 22/14 Q1018
03:00
V
22 °C 10 km+ - 040° 040° 6 kt METAR SBSR 220600Z 04006KT CAVOK 22/14 Q1019
Eine Änderung melden